Weather Roundup
Issued by NWS Chicago, IL

Home | Current Version | Previous Version | Graphics & Text | Print | Product List | Glossary On
Versions: 1 2 3 4 5 6 7 8 9 10 11 12 13 14 15 16 17 18 19 20 21 22 23 24 25 26 27 28 29 30 31 32 33 34 35 36 37 38 39 40 41 42 43 44 45 46 47 48 49 50
000
NZUS59 KLOT 210708
HRRLOT

CHICAGO AREA WEATHER ROUNDUP
NATIONAL WEATHER SERVICE CHICAGO/ROMEOVILLE IL
200 AM CDT TUE APR 21 2015

NOTE: "FAIR" INDICATES FEW OR NO CLOUDS BELOW 12,000 FEET WITH NO
SIGNIFICANT WEATHER AND/OR OBSTRUCTIONS TO VISIBILITY.

* THESE STATIONS ARE NOT UNDER NWS QUALITY CONTROL. THEY ALSO MAY NOT
  REPORT WEATHER SUCH AS PRECIPITATION OR FOG.

ILZ005-006-012>014-019>023-210800-
NORTHEAST ILLINOIS

CITY           SKY/WX    TMP DP  RH WIND       PRES   REMARKS
OHARE          PTCLDY    42  32  67 W10G21    29.60F
MIDWAY         CLOUDY    44  34  67 SW14      29.61F
AURORA         PTCLDY    41  33  73 SW12      29.62F
LANSING*       CLOUDY    42  32  68 SW10      29.64F
JOLIET*        CLOUDY    45  35  68 SW10G17   29.65S
WAUKEGAN       PTCLDY    39  31  72 SW8       29.56F
DUPAGE AIRPORT PTCLDY    40  32  73 SW14      29.60F
WHEELING       PTCLDY    41  32  70 SW10      29.60F
KANKAKEE*      CLEAR     37  33  85 SW8       29.67F
MORRIS*        CLOUDY    42  34  74 SW10      29.63F
LEWIS AIRPORT* CLOUDY    42  33  71 SW14      29.63F
NORTHERLY IS     N/A     44  32  62 S9          N/A
$$

WIZ051-052-058>065-066-070>072-210800-
SOUTHEAST WISCONSIN

CITY           SKY/WX    TMP DP  RH WIND       PRES   REMARKS
MILWAUKEE      CLOUDY    42  30  62 SW15      29.53F
KENOSHA*       CLOUDY    41  32  70 W17G25    29.55F
RACINE*        CLOUDY    42  31  64 SW10G18   29.55F
BURLINGTON     MOCLDY    38  31  77 SW13G18   29.55S
WAUKESHA       MOCLDY    37  30  75 SW12      29.53S
WEST BEND      CLOUDY    37  28  70 W15G21    29.48F
$$

INZ001>003-010>013-019-020-210800-
NORTHWEST INDIANA

CITY           SKY/WX    TMP DP  RH WIND       PRES   REMARKS
GARY*          CLOUDY    45  29  54 SW6       29.64S
MICHIGAN CITY* NOT AVBL
RENSSELAER*    NOT AVBL
VALPARAISO     CLOUDY    42  34  73 SW10      29.65F
$$

LMZ740>746-210800-
SOUTHERN LAKE MICHIGAN

STATION/POSITION TIME  SKY/WX   TEMP WIND        PRES    VSBY
                                AIR  DIR/SP/G
                 (UTC)          (F)  (DEG/KT/KT) (MB)    (MI)
HARRISON CRIB    0600            44  230/ 18/ 25   N/A
BURNHAM HARBOR   0700            44  250/ 11       N/A
CALUMET HARBOR   0600            44  220/  9/ 14   N/A
BURNS HARBOR     0600            45  230/ 13/ 19 1004.4S
MICHIGAN CITY    0600            44  210/ 22/ 24   N/A
$$

ABBREVIATIONS USED IN REMARKS
   TC - TEMPERATURE IN CELSIUS
  WCI - WIND CHILL INDEX
   HX - HEAT INDEX
  VSB - VISIBILITY
$$



USA.gov is the U.S. government's official web portal to all federal, state and local government web resources and services.